�������l�o���
Date,Time,MP-1(��Sv/h),MP-2(��Sv/h),MP-3(��Sv/h),MP-4(��Sv/h),MP-5(��Sv/h),MP-6(��Sv/h),MP-7(��Sv/h),MP-8(��Sv/h),����,����(m/s),���J
2016/11/29,00:00,1.082,1.821,1.218,2.050,1.413,0.569,1.034,0.958,-,CALM,��
2016/11/29,00:10,1.084,1.820,1.218,2.050,1.415,0.570,1.034,0.958,-,CALM,��
2016/11/29,00:20,1.081,1.819,1.221,2.049,1.415,0.569,1.036,0.961,���쓌,0.9,��
2016/11/29,00:30,1.082,1.818,1.218,2.046,1.413,0.570,1.036,0.958,��,1.4,��
2016/11/29,00:40,1.082,1.820,1.220,2.047,1.413,0.569,1.034,0.959,�k��,1.2,��
2016/11/29,00:50,1.084,1.820,1.218,2.046,1.414,0.570,1.036,0.959,�k�k��,1.2,��
2016/11/29,01:00,1.080,1.820,1.217,2.049,1.413,0.569,1.034,0.961,�k�k��,1.4,��
2016/11/29,01:10,1.082,1.814,1.220,2.048,1.412,0.568,1.035,0.959,�k�k��,1.2,��
2016/11/29,01:20,1.083,1.817,1.219,2.047,1.414,0.568,1.035,0.960,-,CALM,��
2016/11/29,01:30,1.082,1.820,1.218,2.045,1.413,0.569,1.035,0.958,���k��,1.4,��
2016/11/29,01:40,1.084,1.817,1.217,2.046,1.415,0.570,1.037,0.962,�k�k��,1.2,��
2016/11/29,01:50,1.085,1.819,1.217,2.050,1.414,0.567,1.034,0.961,�k��,2.6,��
2016/11/29,02:00,1.085,1.816,1.217,2.051,1.413,0.569,1.038,0.962,�k�k��,2.0,��
2016/11/29,02:10,1.082,1.817,1.218,2.048,1.414,0.570,1.035,0.961,�k�k��,1.7,��
2016/11/29,02:20,1.082,1.820,1.219,2.051,1.413,0.570,1.035,0.960,-,CALM,��
2016/11/29,02:30,1.084,1.816,1.217,2.048,1.415,0.569,1.035,0.960,��쐼,3.1,��
2016/11/29,02:40,1.084,1.818,1.214,2.047,1.415,0.568,1.035,0.960,���쐼,3.7,��
2016/11/29,02:50,1.082,1.819,1.217,2.047,1.412,0.568,1.033,0.961,��,4.2,��
2016/11/29,03:00,1.083,1.819,1.220,2.050,1.415,0.570,1.035,0.961,���k��,4.1,��
2016/11/29,03:10,1.084,1.821,1.220,2.049,1.412,0.570,1.035,0.960,���k��,5.3,��
2016/11/29,03:20,1.081,1.818,1.219,2.048,1.415,0.568,1.036,0.960,���k��,3.4,��
2016/11/29,03:30,1.083,1.822,1.219,2.051,1.415,0.569,1.038,0.961,���k��,3.5,��
2016/11/29,03:40,1.081,1.816,1.219,2.051,1.418,0.570,1.036,0.959,���k��,4.2,��
2016/11/29,03:50,1.082,1.816,1.218,2.049,1.416,0.570,1.036,0.962,��,3.6,��
2016/11/29,04:00,1.082,1.820,1.219,2.050,1.414,0.569,1.036,0.962,�k��,4.1,��
2016/11/29,04:10,1.083,1.819,1.219,2.048,1.411,0.569,1.036,0.961,�k��,3.4,��
2016/11/29,04:20,1.082,1.821,1.218,2.048,1.414,0.570,1.037,0.962,���k��,5.0,��
2016/11/29,04:30,1.084,1.819,1.219,2.048,1.413,0.570,1.035,0.960,��,5.5,��
2016/11/29,04:40,1.084,1.820,1.220,2.049,1.415,0.569,1.036,0.960,��,5.1,��
2016/11/29,04:50,1.082,1.817,1.218,2.047,1.411,0.570,1.037,0.960,��,3.5,��
2016/11/29,05:00,1.083,1.819,1.219,2.046,1.413,0.570,1.035,0.961,��,2.9,��
2016/11/29,05:10,1.082,1.818,1.217,2.049,1.411,0.568,1.036,0.960,���k��,2.0,��
2016/11/29,05:20,1.083,1.818,1.217,2.046,1.412,0.569,1.034,0.960,���k��,0.9,��
2016/11/29,05:30,1.082,1.818,1.216,2.048,1.414,0.568,1.034,0.959,���쐼,0.9,��
2016/11/29,05:40,1.081,1.819,1.217,2.050,1.417,0.567,1.035,0.959,�쐼,1.5,��
2016/11/29,05:50,1.083,1.815,1.216,2.046,1.414,0.569,1.036,0.960,���쐼,2.6,��
2016/11/29,06:00,1.083,1.818,1.215,2.047,1.414,0.568,1.035,0.959,���k��,5.2,��
2016/11/29,06:10,1.080,1.821,1.216,2.049,1.414,0.569,1.033,0.960,���k��,4.1,��
2016/11/29,06:20,1.080,1.819,1.213,2.048,1.413,0.568,1.035,0.959,��,3.7,��
2016/11/29,06:30,1.082,1.819,1.215,2.048,1.413,0.569,1.037,0.960,���k��,3.2,��
2016/11/29,06:40,1.080,1.817,1.218,2.050,1.413,0.569,1.035,0.960,���k��,4.1,��
2016/11/29,06:50,1.080,1.820,1.222,2.049,1.413,0.569,1.034,0.959,�k��,5.0,��
2016/11/29,07:00,1.079,1.817,1.220,2.046,1.412,0.569,1.035,0.960,�k,4.8,��
2016/11/29,07:10,1.082,1.819,1.219,2.049,1.412,0.569,1.035,0.959,�k�k��,5.0,��
2016/11/29,07:20,1.081,1.819,1.216,2.046,1.411,0.567,1.037,0.960,�k�k��,5.0,��
2016/11/29,07:30,1.081,1.820,1.220,2.052,1.414,0.568,1.034,0.960,�k��,3.2,��
2016/11/29,07:40,1.082,1.821,1.223,2.051,1.410,0.567,1.035,0.960,���k��,3.2,��
2016/11/29,07:50,1.080,1.816,1.220,2.051,1.413,0.567,1.035,0.960,���k��,3.0,��
2016/11/29,08:00,1.081,1.820,1.218,2.050,1.413,0.566,1.038,0.961,�k��,3.8,��
2016/11/29,08:10,1.080,1.817,1.221,2.050,1.412,0.569,1.036,0.959,�k�k��,4.7,��
2016/11/29,08:20,1.080,1.817,1.220,2.053,1.414,0.569,1.037,0.960,�k�k��,5.5,��
2016/11/29,08:30,1.083,1.819,1.223,2.053,1.414,0.567,1.036,0.961,�k��,5.3,��
2016/11/29,08:40,1.084,1.819,1.219,2.050,1.415,0.568,1.037,0.962,�k�k��,5.6,��
2016/11/29,08:50,1.082,1.821,1.220,2.053,1.416,0.569,1.038,0.960,�k�k��,5.0,��
2016/11/29,09:00,1.081,1.822,1.219,2.051,1.415,0.568,1.037,0.961,�k�k��,5.4,��
2016/11/29,09:10,1.080,1.822,1.218,2.056,1.415,0.570,1.037,0.961,�k�k��,6.9,��
2016/11/29,09:20,1.080,1.823,1.220,2.054,1.416,0.568,1.034,0.961,�k��,6.9,��
2016/11/29,09:30,1.077,1.824,1.219,2.054,1.416,0.568,1.035,0.960,�k��,5.2,��
2016/11/29,09:40,1.080,1.821,1.221,2.054,1.415,0.570,1.033,0.960,�k��,7.3,��
2016/11/29,09:50,1.081,1.825,1.220,2.054,1.417,0.567,1.034,0.960,�k��,8.8,��
2016/11/29,10:00,1.083,1.823,1.220,2.055,1.419,0.568,1.033,0.960,�k��,7.7,��
2016/11/29,10:10,1.078,1.821,1.217,2.054,1.419,0.568,1.033,0.961,�k��,8.0,��
2016/11/29,10:20,1.080,1.827,1.219,2.053,1.420,0.569,1.035,0.962,�k��,6.6,��
2016/11/29,10:30,1.081,1.825,1.220,2.056,1.419,0.569,1.035,0.961,�k��,6.2,��
2016/11/29,10:40,1.082,1.825,1.223,2.055,1.421,0.570,1.035,0.962,�k��,5.8,��
2016/11/29,10:50,1.086,1.829,1.217,2.058,1.423,0.571,1.037,0.961,�k��,6.2,��
2016/11/29,11:00,1.085,1.829,1.221,2.057,1.422,0.568,1.034,0.961,�k��,4.6,��
2016/11/29,11:10,1.085,1.825,1.223,2.056,1.422,0.571,1.036,0.961,�k��,3.6,��
2016/11/29,11:20,1.084,1.827,1.222,2.058,1.422,0.570,1.038,0.963,�k��,3.4,��
2016/11/29,11:30,1.085,1.826,1.224,2.059,1.422,0.570,1.036,0.961,�k�k��,5.1,��
2016/11/29,11:40,1.087,1.824,1.224,2.062,1.421,0.571,1.037,0.962,�k��,6.2,��
2016/11/29,11:50,1.084,1.827,1.222,2.062,1.422,0.570,1.036,0.962,�k��,6.5,��
2016/11/29,12:00,1.086,1.826,1.218,2.061,1.424,0.571,1.037,0.963,�k��,5.8,��
2016/11/29,12:10,1.084,1.827,1.224,2.061,1.422,0.572,1.038,0.961,�k�k��,4.7,��
2016/11/29,12:20,1.087,1.827,1.226,2.060,1.424,0.570,1.036,0.963,�k��,4.9,��
2016/11/29,12:30,1.087,1.828,1.225,2.064,1.425,0.571,1.036,0.964,�k��,3.6,��
2016/11/29,12:40,1.088,1.827,1.224,2.048,1.423,0.571,1.037,0.963,�k��,4.3,��
2016/11/29,12:50,1.088,1.827,1.220,2.063,1.422,0.571,1.039,0.965,�k��,5.2,��
2016/11/29,13:00,1.090,1.828,1.218,2.060,1.425,0.571,1.038,0.962,���k��,3.7,��
2016/11/29,13:10,1.092,1.831,1.225,2.056,1.423,0.570,1.040,0.964,��,3.5,��
2016/11/29,13:20,1.090,1.826,1.227,2.063,1.425,0.571,1.037,0.963,�k��,3.3,��
2016/11/29,13:30,1.089,1.825,1.228,2.065,1.422,0.570,1.038,0.962,�k�k��,1.9,��
2016/11/29,13:40,1.089,1.828,1.226,2.060,1.422,0.571,1.037,0.965,�k�k��,2.5,��
2016/11/29,13:50,1.089,1.827,1.227,2.063,1.420,0.571,1.041,0.964,�k,1.9,��
2016/11/29,14:00,1.091,1.830,1.229,2.060,1.417,0.573,1.040,0.963,�k�k��,1.4,��
2016/11/29,14:10,1.090,1.833,1.228,2.060,1.421,0.571,1.040,0.964,�k��,1.9,��
2016/11/29,14:20,1.092,1.833,1.228,2.061,1.420,0.572,1.039,0.964,�k,3.8,��
2016/11/29,14:30,1.091,1.832,1.230,2.065,1.423,0.573,1.041,0.964,�k,1.5,��
2016/11/29,14:40,1.090,1.837,1.228,2.063,1.425,0.572,1.038,0.963,���k��,1.2,��
2016/11/29,14:50,1.092,1.832,1.229,2.066,1.423,0.571,1.039,0.964,�k��,1.4,��
2016/11/29,15:00,1.091,1.831,1.229,2.063,1.423,0.570,1.040,0.963,�k�k��,2.6,��
2016/11/29,15:10,1.092,1.831,1.229,2.063,1.424,0.573,1.040,0.963,�k�k��,3.3,��
2016/11/29,15:20,1.090,1.831,1.230,2.064,1.424,0.572,1.038,0.963,�k�k��,3.2,��
2016/11/29,15:30,1.091,1.830,1.229,2.063,1.423,0.571,1.040,0.963,�k�k��,2.9,��
2016/11/29,15:40,1.090,1.832,1.230,2.067,1.424,0.571,1.040,0.962,�k,4.2,��
2016/11/29,15:50,1.088,1.834,1.228,2.063,1.425,0.572,1.040,0.963,�k,4.2,��
2016/11/29,16:00,1.089,1.831,1.227,2.061,1.422,0.571,1.041,0.962,�k�k��,4.3,��
2016/11/29,16:10,1.090,1.833,1.229,2.065,1.422,0.572,1.041,0.963,�k�k��,4.5,��
2016/11/29,16:20,1.087,1.833,1.227,2.066,1.424,0.573,1.041,0.962,�k�k��,4.0,��
2016/11/29,16:30,1.089,1.837,1.226,2.062,1.425,0.571,1.039,0.963,�k��,3.0,��
2016/11/29,16:40,1.088,1.835,1.227,2.063,1.427,0.572,1.040,0.962,�k��,4.3,��
2016/11/29,16:50,1.088,1.835,1.227,2.064,1.425,0.570,1.038,0.963,�k�k��,7.0,��
2016/11/29,17:00,1.089,1.835,1.228,2.065,1.426,0.571,1.041,0.964,�k��,8.3,��
2016/11/29,17:10,1.090,1.835,1.229,2.061,1.427,0.572,1.041,0.964,�k��,8.8,��
2016/11/29,17:20,1.089,1.835,1.230,2.065,1.426,0.571,1.041,0.964,�k��,7.8,��
2016/11/29,17:30,1.088,1.834,1.229,2.065,1.424,0.570,1.041,0.962,�k��,5.9,��
2016/11/29,17:40,1.087,1.834,1.230,2.064,1.425,0.570,1.041,0.963,�k��,7.3,��
2016/11/29,17:50,1.087,1.835,1.229,2.065,1.425,0.570,1.043,0.963,�k��,6.4,��
2016/11/29,18:00,1.086,1.836,1.226,2.067,1.427,0.570,1.039,0.963,�k��,7.7,��
2016/11/29,18:10,1.088,1.830,1.227,2.064,1.426,0.569,1.041,0.963,�k��,7.0,��
2016/11/29,18:20,1.087,1.832,1.226,2.066,1.425,0.571,1.041,0.962,�k��,7.2,��
2016/11/29,18:30,1.088,1.832,1.229,2.066,1.426,0.570,1.037,0.962,���k��,6.2,��
2016/11/29,18:40,1.089,1.830,1.225,2.069,1.426,0.569,1.040,0.962,�k��,6.4,��
2016/11/29,18:50,1.089,1.835,1.230,2.066,1.429,0.572,1.041,0.962,�k��,7.0,��
2016/11/29,19:00,1.088,1.834,1.228,2.062,1.426,0.569,1.040,0.962,�k��,6.0,��
2016/11/29,19:10,1.088,1.836,1.227,2.065,1.428,0.571,1.041,0.963,�k��,6.5,��
2016/11/29,19:20,1.085,1.834,1.226,2.065,1.424,0.571,1.039,0.962,�k��,6.5,��
2016/11/29,19:30,1.085,1.832,1.227,2.063,1.425,0.568,1.038,0.964,�k��,5.7,��
2016/11/29,19:40,1.087,1.834,1.229,2.065,1.427,0.570,1.037,0.962,�k�k��,3.8,��
2016/11/29,19:50,1.086,1.833,1.229,2.067,1.428,0.569,1.041,0.963,�k��,3.4,��
2016/11/29,20:00,1.084,1.833,1.227,2.061,1.425,0.570,1.039,0.963,�k��,3.5,��
2016/11/29,20:10,1.086,1.835,1.227,2.061,1.425,0.569,1.042,0.962,�k��,3.6,��
2016/11/29,20:20,1.085,1.833,1.228,2.063,1.425,0.569,1.037,0.960,�k��,4.7,��
2016/11/29,20:30,1.083,1.834,1.226,2.065,1.426,0.570,1.038,0.962,�k��,5.7,��
2016/11/29,20:40,1.084,1.832,1.227,2.063,1.426,0.571,1.039,0.962,�k��,4.8,��
2016/11/29,20:50,1.086,1.831,1.225,2.064,1.427,0.570,1.038,0.963,�k��,4.0,��
2016/11/29,21:00,1.085,1.831,1.227,2.065,1.425,0.569,1.039,0.963,�k��,4.7,��
2016/11/29,21:10,1.083,1.837,1.226,2.061,1.427,0.570,1.038,0.962,�k��,3.7,��
2016/11/29,21:20,1.084,1.830,1.225,2.063,1.427,0.568,1.039,0.963,�k��,2.9,��
2016/11/29,21:30,1.081,1.831,1.223,2.065,1.426,0.569,1.040,0.962,�k��,4.1,��
2016/11/29,21:40,1.082,1.833,1.223,2.063,1.426,0.570,1.038,0.961,�k��,5.1,��
2016/11/29,21:50,1.083,1.834,1.226,2.061,1.425,0.570,1.038,0.962,�k��,5.8,��
2016/11/29,22:00,1.084,1.828,1.225,2.065,1.426,0.570,1.039,0.961,�k��,5.5,��
2016/11/29,22:10,1.078,1.832,1.227,2.064,1.423,0.570,1.039,0.961,�k��,5.6,��
2016/11/29,22:20,1.080,1.831,1.224,2.063,1.425,0.570,1.040,0.963,�k��,5.3,��
2016/11/29,22:30,1.083,1.833,1.226,2.060,1.426,0.568,1.038,0.963,�k��,4.8,��
2016/11/29,22:40,1.083,1.832,1.225,2.062,1.425,0.569,1.037,0.962,�k��,3.4,��
2016/11/29,22:50,1.082,1.828,1.226,2.059,1.426,0.570,1.039,0.961,�k��,1.7,��
2016/11/29,23:00,1.082,1.833,1.223,2.060,1.419,0.569,1.038,0.960,�k��,0.9,��
2016/11/29,23:10,1.083,1.830,1.224,2.060,1.426,0.569,1.037,0.962,�k��,1.2,��
2016/11/29,23:20,1.082,1.830,1.224,2.062,1.423,0.568,1.035,0.960,�k��,1.9,��
2016/11/29,23:30,1.080,1.829,1.222,2.059,1.424,0.568,1.037,0.960,�k��,2.2,��
2016/11/29,23:40,1.081,1.832,1.223,2.058,1.422,0.569,1.037,0.961,�k��,2.5,��
2016/11/29,23:50,1.082,1.831,1.223,2.063,1.424,0.567,1.037,0.961,�k��,3.3,��
